Theta_e
337 335 335 336 339 342 343 344 346 347 346 345 344 344 344 344 342 341 339 336 336 334 334 334 335 335 332 331 329 328 330 330
337 335 336 337 338 342 344 345 347 349 345 343 343 342 343 341 341 339 337 334 336 333 329 332 332 330 331 331 329 329 328 327
339 338 338 338 338 344 345 348 349 350 349 345 346 342 342 341 340 338 337 334 335 333 331 329 330 331 331 332 329 329 327 327
341 338 340 339 340 344 346 346 350 350 349 348 345 344 343 341 339 338 337 335 336 333 332 330 330 330 330 331 331 329 327 326
343 340 342 342 342 345 348 347 350 351 350 349 345 342 340 341 339 337 335 336 336 333 330 327 329 331 331 332 331 330 328 326
345 344 345 345 342 345 347 343 347 350 351 347 344 341 339 339 339 336 333 333 332 331 327 325 328 328 328 329 329 329 329 328
347 347 346 347 347 346 345 345 346 349 349 346 345 343 338 337 336 335 334 332 329 329 326 326 327 326 326 326 327 328 327 326
346 348 347 349 351 350 348 346 351 349 345 344 339 336 336 335 334 335 334 332 328 328 326 325 326 323 325 325 327 325 325 324
346 348 347 348 351 353 351 348 350 345 341 338 332 332 333 334 334 333 332 330 327 328 324 324 324 324 328 327 323 322 318 321
341 345 347 347 350 353 352 351 349 346 342 339 339 337 333 335 333 330 330 329 328 326 326 324 325 323 326 325 325 321 318 320
339 340 342 346 348 350 351 348 346 346 345 341 334 329 327 326 325 324 326 325 326 329 324 325 324 325 321 325 324 323 317 318
339 340 341 342 346 349 346 343 345 345 344 336 333 331 326 326 324 323 323 324 326 324 327 326 325 322 324 322 321 322 320 316
337 340 342 344 346 345 343 344 345 344 343 340 334 333 332 328 322 320 322 323 326 323 325 324 323 322 323 322 321 321 319 317
338 340 340 341 343 341 341 343 346 343 342 339 338 337 333 325 325 319 321 322 324 324 322 325 324 322 321 320 322 320 322 320
335 338 338 341 343 342 343 343 344 342 340 336 334 335 336 331 327 327 325 322 323 325 327 328 322 323 321 322 321 322 320 318
333 336 340 342 343 343 341 343 343 344 338 337 336 338 334 333 331 330 326 325 324 329 326 326 325 323 321 321 319 319 320 318
329 332 333 334 340 342 342 343 343 344 343 343 340 338 335 336 337 334 327 328 327 326 326 326 324 323 323 324 318 319 320 321
330 333 334 338 339 339 341 342 344 343 342 340 340 338 336 335 328 323 323 326 328 328 325 326 325 322 323 322 318 321 320 317
331 332 335 335 335 336 339 341 342 339 341 341 340 337 333 329 323 322 321 324 325 325 326 325 324 322 323 322 321 319 317 320
329 329 330 331 330 330 333 340 340 342 340 339 337 336 333 328 325 322 321 323 325 323 323 324 323 324 323 322 320 319 317 317
Wind_Speed
13 12 12 13 12 9 11 8 6 7 9 8 5 5 4 4 2 3 5 1 2 4 7 8 7 12 7 7 4 7 8 6
13 12 11 13 11 11 8 12 8 4 7 5 5 4 3 3 6 1 2 3 0 5 5 1 4 4 2 3 5 4 6 7
13 14 13 13 15 13 10 12 8 5 1 3 1 5 2 5 2 5 4 4 3 4 3 5 5 2 2 1 4 2 5 7
13 14 15 14 15 14 14 12 10 9 6 4 4 3 4 4 4 5 2 4 2 1 2 2 2 3 2 2 1 1 3 6
13 14 15 14 15 16 15 13 13 10 7 6 4 5 5 3 3 4 2 3 2 7 2 4 1 2 2 2 3 1 2 4
12 13 13 13 14 17 16 14 17 14 10 7 5 6 6 5 2 3 0 1 1 4 3 4 3 3 4 3 5 2 1 2
13 14 14 15 14 17 17 16 18 15 12 10 12 11 4 5 7 4 3 2 1 5 3 2 4 4 3 3 2 4 2 4
11 13 15 14 13 14 14 12 14 15 11 7 5 6 6 5 3 4 5 3 2 3 1 3 7 4 2 2 3 1 6 4
8 11 13 14 14 14 14 13 16 12 9 7 2 6 6 5 3 2 6 3 4 2 4 3 5 5 3 2 3 4 4 3
8 8 12 14 14 13 12 13 14 11 7 4 2 3 3 4 3 4 2 3 5 4 3 3 3 0 4 4 3 5 4 3
11 7 8 11 10 12 10 11 10 8 8 4 6 6 4 4 3 1 4 2 5 4 3 4 1 7 5 4 4 4 6 1
9 7 5 2 6 11 11 8 8 8 9 6 7 6 6 6 4 3 3 5 6 5 3 4 4 5 1 5 3 4 3 5
11 11 10 10 10 9 7 9 11 9 9 6 7 7 5 5 6 7 4 4 8 7 6 4 2 6 1 3 2 3 3 6
12 10 5 6 6 5 6 7 9 8 7 7 9 7 7 8 9 8 9 8 9 8 7 6 5 2 4 3 2 2 5 5
9 9 7 7 8 6 6 7 9 9 9 8 9 9 9 9 11 10 11 10 8 9 8 6 6 6 5 4 3 3 2 5
7 7 11 9 10 11 9 9 9 10 10 10 9 9 6 7 10 9 9 8 8 11 9 10 9 8 6 5 5 4 3 4
5 5 3 4 8 8 9 7 8 8 9 5 9 8 10 9 10 10 5 7 7 11 11 9 9 8 6 5 4 4 2 3
6 3 3 1 2 4 3 1 5 6 8 8 8 8 7 6 5 7 6 4 6 10 11 11 10 8 7 6 4 5 5 5
5 5 6 5 5 3 5 5 6 5 5 5 5 5 6 6 7 8 6 4 4 4 10 11 10 10 9 8 7 4 7 4
7 5 4 1 4 5 3 3 5 8 5 5 5 7 7 9 10 10 8 7 6 7 8 10 10 12 11 7 7 8 6 9
Wind_Direction
167 166 169 156 162 152 142 146 155 151 135 176 164 157 132 120 122 274 43 97 176 221 145 173 169 196 218 202 28 35 26 28
172 167 164 149 175 151 142 152 160 190 127 203 140 128 140 169 75 54 90 238 197 349 356 11 259 40 305 32 75 47 48 51
172 163 164 164 171 160 169 145 157 169 109 147 77 93 144 73 167 62 6 349 11 337 360 338 332 344 124 93 56 30 97 58
165 168 165 176 167 162 161 163 157 165 189 104 114 57 123 63 40 42 11 333 12 338 236 291 357 334 347 252 88 95 77 104
173 178 168 181 167 160 156 174 160 162 167 160 164 134 119 100 75 65 24 335 83 317 329 288 353 49 311 284 243 232 136 118
172 179 174 172 172 160 165 176 165 164 155 163 157 121 116 139 166 171 217 122 307 269 281 330 9 247 234 217 247 247 254 124
172 179 176 171 171 166 179 177 165 161 146 159 167 158 153 166 158 174 157 156 240 296 299 3 270 260 253 240 244 303 117 282
185 183 178 172 172 175 178 176 158 149 153 147 170 142 153 155 175 196 158 195 216 269 352 312 276 253 210 250 346 253 319 284
189 188 181 179 178 174 178 180 145 166 164 169 165 172 167 168 172 167 135 213 224 210 273 210 263 277 349 168 218 208 250 280
170 193 193 185 181 176 178 172 168 171 169 176 70 149 212 164 139 326 74 119 248 245 311 313 335 223 258 213 250 293 241 273
155 183 205 198 166 173 186 141 171 178 198 128 100 94 122 161 163 61 345 323 251 251 227 297 266 289 183 209 212 256 292 199
70 141 156 309 112 79 92 138 183 200 181 167 191 212 197 203 158 145 229 231 242 223 209 225 231 282 121 193 209 297 241 274
71 54 71 78 93 115 143 192 192 182 185 216 203 234 213 139 154 174 200 254 251 228 199 203 219 261 109 345 97 248 269 300
83 83 74 98 108 143 182 204 192 183 194 215 222 222 180 170 176 183 196 204 208 210 196 191 199 187 187 186 166 230 300 330
97 122 138 135 143 163 183 211 219 186 192 205 222 231 222 204 192 203 193 194 189 192 199 188 189 215 180 157 176 126 259 289
109 139 145 160 171 198 194 187 219 196 187 196 209 226 219 207 192 208 206 208 200 170 191 191 202 181 189 176 188 227 192 260
116 125 140 54 161 182 210 177 210 218 228 196 209 221 224 213 210 198 215 232 191 172 193 198 199 193 171 171 241 169 47 257
106 95 75 75 198 196 107 337 218 217 204 213 210 199 215 224 174 186 224 268 276 158 196 198 193 193 207 178 186 184 205 254
142 164 173 213 202 193 141 179 174 213 248 229 205 201 206 185 194 200 194 221 240 183 212 201 197 201 196 197 207 245 196 219
218 182 138 14 23 33 91 141 229 176 196 219 206 191 201 202 208 203 194 217 216 213 194 215 213 211 203 196 214 206 227 215